Погода в Ухте

Погода в Ухте : погода сейчас, прогноз погоды и архив. Всё, что Вы хотите узнать о погоде в Ухте!

Поиск расширенной информации на нашем сайте:

Другие новости

Новости СМИ2

Главная страница сайта

Новости сайта

03.07.2017

Напоминаем, что на нашем специализированном сайте Метеоцентр.Азия вы можете получить высокодетализированные автоматические прогнозы погоды по пунктам России, СНГ и мира в авиационном формате (включающие направление и скорость ветра, видимость, явления погоды, количество и форму облачности, нижнюю и верхнюю границу облачности).


Погода в Ухте - сегодня

Время (UTC), дата Ветер
(°,м/с) 
Видим.   Явления Облачность Т
(°С)
Тd
(°С)
f(%) Тe
(°С)
Pmin
(гПа)
dP
(гПа)
Po
(мм)
O2
(г/м3)
Тmin Tmax R s Состояние
почвы
18 12.12.17 140 (ЮВ) 10 км  {ливн. осадки, снег}  10/10 210 м 
[Frnb]
-15.9 -17.8 85 -18  1028.5  -0.2  757  326           
21 12.12.17 160 (Ю) 10 км    10/10 270 м 
[Frnb]
-12.3 -13.6 90 -16  1027.8  -0.4  757  321           
00 13.12.17 150 (ЮВ) 10 км    10/10 360 м 
[Sc]
-11.2 -12.5 90 -15  1026.6  -1.2  756  319           
03 13.12.17 150 (ЮВ) 10 км    10/10 600 м 
[Sc]
-10 -11.2 91 -14  1026  -0.5  756  317  -15.9    0.2  26  равномерный
сухой снег
100% 
06 13.12.17 150 (ЮВ) 5{10}  12000 м    10/10 210 м 
[Sc]
-9.4 -10.6 91 -14  1022.9  -2.9  754  316           
09 13.12.17 160 (Ю) 5{10}  12000 м    10/10 240 м 
[Frnb]
-8.7 -10.2 89 -13  1020.5  -2.3  752  314           
12 13.12.17 160 (Ю) 6{11}  10 км  слаб. снег  10/10 240 м 
[Frnb]
-7.9 -9.3 90 -13  1017  -3.4  749  312           
15 13.12.17 160 (Ю) 9-11{14}  5000 м  слаб. снег  10/10 210 м 
[Frnb|Ns]
-6.6 -7.8 91 -13  1013.2  -3.6  747  309    -6.5  0.0     
18 13.12.17 160 (Ю) 10-15{17}  1400 м  сильн. снег  10/10 120 м 
[Frnb|Ns]
-5 -6.3 91 -11  1010.7  -2.4  745  306           
21 13.12.17 160 (Ю) 8-14{15}  1200 м  сильн. снег  10/10 180 м 
[Frnb|Ns]
-3.8 -5 91 -9  1008.5  -2  743  304           
00 14.12.17 160 (Ю) 8-14{15}  3000 м  снег  10/10 210 м 
[Frnb|Ns]
-3.1 -4.5 90 -8  1007.3  -1.1  743  303           
03 14.12.17 200 (Ю) 5{14}  10 км  в посл. час снег  10/10 450 м 
[St]
-2.3 -3.5 91 -6  1007.9  0.6  743  302  -0.6    25  равномерный
сухой снег
100% 
06 14.12.17 200 (Ю) 12000 м  {снег}  8/4 300 м верхняя 
[Sc|Cc]
-2 -3.8 87 -5  1011.4  3.4  746  303           
09 14.12.17 220 (ЮЗ) 12000 м    6/3 300 м верхняя 
[Sc|Ci fib]
-1.9 -4 86 -4  1014.1  2.8  748  304           
12 14.12.17 220 (ЮЗ) 10 км    1/1 300 м 
[Sc]
-2.7 -4.3 89 -5  1015.7  1.4  749  305           
15 14.12.17 220 (ЮЗ) 10 км    10/10 480 м 
[Sc]
-2.2 -4.4 85 -4  1016.7  749  305    -1.7       
18 14.12.17 200 (Ю) 10 км    10/8 450 м средняя 
[Sc|Ac trans]
-3 -5.4 83 -5  1016.6  -0.1  749  306           
21 14.12.17 180 (Ю) 10 км    10/10 480 м 
[Sc]
-2.8 -4.4 89 -5  1016.5  -0.1  749  306           
00 15.12.17 160 (Ю) 10 км    10/5 360 м средняя 
[Sc|Ac trans]
-3 -4.3 91 -5  1015.9  -0.6  749  306           
03 15.12.17 160 (Ю) 10 км  слаб. снег  10/5 450 м средняя 
[Sc|As op]
-3.2 -4.2 93 -6  1015.5  -0.4  749  306  -3.3    0.6  22  равномерный
сухой снег
100% 
06 15.12.17 160 (Ю) 10 км  в посл. час снег  10/5 360 м средняя 
[Sc|As op]
-4.2 -5.1 93 -5  1015.5  0.1  748  307  -4.2         
09 15.12.17 160 (Ю) 6000 м  слаб. снег  10/6 300 м средняя 
[Sc|As op]
-3 -4 93 -5  1015.4  748  305           
12 15.12.17 160 (Ю) 10 км  слаб. снег  10/8 480 м средняя 
[Sc|As op]
-2 -2.9 94 -5  1015.4  748  304           
15 15.12.17 160 (Ю) 3000 м  слаб. ливневой снег  10/10 300 м кучево-дожд. 
[Cb cap]
-1.9 -2.7 94 -5  1016  0.7  749  304    -1.9     
18 15.12.17 180 (Ю) 10 км  {ливн. осадки, снег}  10/10 330 м кучево-дожд. 
[Cb cap]
-2.6 -4.2 89 -5  1017.3  1.2  750  306           
Время (UTC), дата Ветер
(°,м/с) 
Видим.   Явления Облачность Т
(°С)
Тd
(°С)
f(%) Тe
(°С)
Pmin
(гПа)
dP
(гПа)
Po
(мм)
O2
(г/м3)
Тmin Tmax R s Состояние
почвы

Для получения пояснительной информации подведите курсор к названию столбца.

ПОГОДА в Ухте - архив

Всё, что Вы хотите узнать о погоде в Ухте - удобно и подробно!

Выберите нужную дату (начиная с 1 января 2015* года) и нажмите кнопку "Найти".
Будут отображены архивные сводки погоды по пункту Ухта, начиная с указанной даты.


Отображать данные в формате CSV (для использования в таблицах Excel)


Внимание! Наш архив погоды предназначен исключительно для личного некоммерческого использования в познавательных целях. Если Вам необходимы официальные справки о состоянии погоды (для производственных, юридических, коммерческих и т.п. целей), обращайтесь в органы Росгидромета.

*Примечание: данная дата относится к архиву по метеостанциям СССР (Россия, СНГ, Балтия).
Архив по метеостанциям Зарубежной Европы и Азии (кроме Китая) хранится 10 дней, по другим регионам земного шара (Китай, Африка, Америка, Австралия, Океания) - 1 день.

Ухта - район местоположения метеостанции


Название, широта, долгота, высота метеостанции:
Ухта 63.6°ш. 53.8°д. 137 м над ур. моря [Российская Федерация]

Дополнительная информация

В oтличие oт бoльшинства пoгoдных сайтoв мы публикуем пoдрoбную метеoинфoрмацию в детальнoм прoфессиoнальнoм фoрмате.

Характеристики температуры и влажнoсти вoздуха измеряются на высoте 2 м в тени вдали oт зданий и деревьев.
Скoрoсть ветра измеряется на высoте 10 м (на урoвне рoста челoвека скoрoсть ветра ниже в 1.5-2 раза). Если метеoстанция нахoдится в гoрoде или в лесу, тo скoрoсть ветра занижена на 2-4 м/с пo сравнению с oткрытым местoм. Скoрoсть ветра над акватoриями крупных рек и oзёр, а также на вершинах хoлмoв на 2-5 м/с выше, чем в oбычных услoвиях.
Атмoсфернoе давление в разных тoчках местнoсти мoжет значительнo oтличаться oт давления на метеoстанции, в зависимoсти oт услoвий рельефа (при пoдъёме на 10 м давление пoнижается примернo на 1 мм рт.ст.).